Wind_Speed
13 12 12 11 10 10 10 10 9 9 9 8 8 8 7 7 7 7 7 6 6 6 6 5 5 5 5 5 5 5 5 5 5 4 5 5 6 6 6 6 6 6
14 13 12 11 10 10 10 10 9 9 9 8 8 7 7 7 7 7 7 7 7 7 6 6 6 6 6 6 5 6 6 6 6 6 6 6 6 7 7 7 7 7
16 15 13 12 11 11 10 10 9 9 8 8 8 7 7 7 7 7 7 7 7 7 7 7 7 7 7 7 6 7 7 6 7 6 5 6 7 7 7 7 7 7
17 16 15 14 12 11 10 10 10 9 9 8 8 8 8 7 7 7 8 8 8 8 7 7 7 7 7 7 7 7 7 6 7 6 5 6 7 7 8 8 7 7
18 17 15 14 12 11 10 10 10 10 9 9 8 8 8 8 8 8 8 8 9 9 8 8 8 8 8 8 8 8 8 8 7 7 7 7 8 8 8 7 7 7
17 17 16 15 13 12 11 11 10 10 10 9 9 8 9 9 9 9 8 9 9 9 10 9 9 9 8 9 9 9 8 8 7 6 7 8 8 8 8 7 7 8
16 17 16 16 14 13 13 12 11 11 10 9 9 9 9 9 10 10 9 9 9 9 9 9 9 9 9 9 9 9 9 9 8 8 8 9 9 9 9 8 8 8
16 16 16 15 15 14 14 13 12 11 11 10 10 10 10 10 10 10 10 10 10 10 9 9 9 9 9 9 10 10 10 10 10 9 10 10 9 9 10 9 9 9
15 15 15 15 15 14 14 14 13 12 12 11 11 10 10 11 11 10 10 10 10 10 9 9 9 9 10 10 10 10 10 11 10 9 10 10 10 10 10 10 10 10
15 16 15 16 16 15 14 14 13 12 12 12 12 11 11 11 11 10 10 10 10 11 10 10 10 10 10 10 11 11 11 11 11 10 11 11 11 11 11 11 11 11
16 16 16 16 16 15 15 15 14 13 13 12 12 12 11 10 10 10 10 11 11 11 11 10 10 10 10 11 11 11 11 11 11 11 11 12 12 12 12 12 12 12
16 16 16 16 16 16 15 15 15 14 13 13 12 12 11 11 10 10 10 10 11 11 11 11 10 10 10 11 11 12 11 11 11 11 12 12 12 12 12 13 13 12
17 17 16 16 16 15 15 14 14 14 14 13 12 12 12 12 11 11 10 10 10 11 11 11 10 10 11 11 12 12 12 12 12 12 13 12 12 13 13 13 13 13
18 17 17 16 15 15 14 14 14 14 13 13 12 12 12 12 12 11 11 11 11 11 11 11 11 11 11 11 12 12 12 13 13 13 13 13 13 13 13 13 13 13
16 16 16 16 15 14 14 14 13 13 13 12 12 12 12 11 11 11 11 11 11 11 11 11 12 13 13 12 12 12 12 13 13 13 13 13 12 13 12 12 13 13
13 13 14 15 15 14 14 14 13 12 12 12 12 12 11 10 10 10 11 11 11 11 11 12 13 13 12 13 13 12 12 12 12 12 12 11 12 13 13 13 14 16
12 11 11 12 14 14 14 13 13 12 11 11 11 11 10 10 10 11 11 12 12 11 12 13 11 9 10 12 13 13 13 13 13 12 12 11 12 14 15 15 15 15
13 12 11 11 11 12 13 13 12 12 11 10 11 11 11 11 11 12 12 12 12 12 13 12 9 9 11 12 12 13 14 14 14 12 11 12 12 13 14 15 15 14
13 12 12 11 10 10 11 12 12 12 12 12 12 11 11 11 11 11 11 12 12 12 13 11 11 12 13 12 11 13 14 15 14 12 13 15 15 14 15 16 15 14
12 12 12 11 10 9 9 11 12 12 12 12 11 11 10 10 10 10 10 11 11 12 12 11 11 13 13 13 14 15 16 16 15 14 16 19 18 17 18 18 16 14
10 11 11 10 10 10 9 9 10 10 11 11 10 10 9 8 9 9 8 8 9 11 12 10 8 10 12 14 15 16 18 17 15 14 15 16 17 17 19 20 18 15
11 9 9 8 8 9 8 7 8 8 9 9 8 8 7 7 7 7 6 6 6 7 8 8 8 10 13 15 16 17 17 14 12 12 12 14 16 17 18 18 16 12
11 9 8 7 7 7 7 6 6 6 6 6 6 7 6 6 6 6 4 3 2 3 5 5 7 11 13 14 15 16 13 10 9 10 11 12 13 14 15 13 11 9
9 9 8 7 6 5 5 4 4 4 4 5 5 5 5 5 6 5 4 3 2 2 3 2 4 9 10 10 11 12 11 9 8 8 10 11 11 12 11 8 7 9
8 7 7 6 5 4 3 3 4 4 5 6 6 6 5 5 4 4 3 2 2 2 2 2 2 7 7 7 8 9 8 7 7 8 10 10 11 12 10 4 4 7
7 6 5 5 7 7 5 4 4 5 6 7 6 6 5 5 4 4 4 4 4 4 5 5 3 5 6 7 8 8 7 5 5 6 7 7 10 12 8 2 2 5
Wind_Direction
207 207 207 209 209 209 208 206 206 207 209 213 213 210 211 210 208 206 204 203 205 208 207 211 219 223 228 229 227 233 239 243 245 238 237 245 252 258 257 259 264 271
207 208 209 211 211 212 214 213 212 212 213 218 220 215 212 210 209 209 209 211 215 216 215 217 222 223 227 226 225 233 238 243 250 247 243 249 257 262 261 260 263 264
205 207 210 213 214 213 214 214 217 220 220 221 221 219 216 211 209 210 213 218 221 224 223 223 225 225 229 229 227 236 242 243 250 253 251 254 258 263 263 264 266 265
204 207 210 214 215 215 216 215 217 220 223 223 221 219 217 214 211 212 216 220 224 230 229 227 230 231 230 230 231 236 242 244 247 251 253 255 257 261 263 265 269 272
204 206 210 213 215 215 216 218 218 220 222 223 221 218 215 216 218 219 220 220 222 227 229 228 230 232 231 230 231 235 241 244 238 234 243 254 257 258 259 260 265 271
203 205 208 212 215 215 217 220 220 222 223 221 220 219 216 216 221 226 227 225 224 226 228 229 228 230 232 228 229 233 240 248 243 231 241 255 258 259 261 260 262 266
203 204 207 211 214 217 220 222 221 222 223 221 219 219 219 219 222 227 229 229 231 231 232 234 231 232 234 230 229 232 237 246 249 246 250 256 259 260 261 261 260 260
205 204 206 211 214 216 218 219 218 217 219 219 220 219 219 222 223 225 227 228 232 234 235 236 235 234 237 236 234 235 239 244 245 242 245 250 254 255 256 258 258 257
208 207 207 210 214 216 217 218 216 214 214 217 220 220 218 220 224 225 225 226 230 233 234 237 238 238 239 240 239 241 245 250 251 249 248 250 252 253 253 253 253 254
209 209 209 210 212 215 217 218 218 214 214 216 220 223 221 219 222 225 225 224 228 232 233 235 237 238 240 241 241 244 247 251 254 253 254 255 256 257 257 255 254 255
211 210 211 211 213 215 216 217 219 217 216 217 220 224 225 223 221 224 225 225 228 231 232 233 235 236 240 243 243 245 248 251 253 253 254 256 257 258 257 256 256 256
211 212 213 212 214 217 216 216 219 219 218 218 219 222 224 225 225 224 226 226 229 232 231 230 232 233 236 241 244 246 247 250 253 254 254 255 256 256 255 253 254 255
209 213 215 215 214 217 219 217 217 219 218 217 217 219 220 224 226 225 225 228 229 233 234 231 231 233 234 237 241 244 245 247 250 252 252 253 253 254 254 254 254 255
207 211 214 216 215 216 219 220 219 219 219 219 218 218 219 223 225 224 225 229 230 232 234 234 233 234 235 236 238 240 242 244 248 251 252 252 251 253 256 258 260 261
206 208 211 214 214 215 217 220 222 220 218 219 220 222 224 225 227 229 228 229 231 233 234 236 236 236 235 233 234 238 244 247 248 249 250 252 252 254 258 263 267 268
202 204 207 210 211 212 214 216 220 221 220 220 222 225 229 231 232 234 234 235 235 234 236 238 239 240 237 232 234 241 247 250 252 252 252 254 256 259 262 263 265 265
198 199 200 206 210 212 213 214 217 220 221 221 221 224 228 231 233 235 238 242 241 240 241 240 242 245 242 242 252 259 256 253 253 252 252 257 263 265 266 265 264 264
201 200 199 203 208 211 214 214 215 217 218 219 221 224 226 228 232 236 239 242 245 246 247 249 260 265 251 247 260 271 270 263 258 259 264 269 269 266 266 268 267 266
206 203 202 204 205 210 213 213 214 215 216 219 222 226 229 231 232 235 237 242 245 248 251 256 266 270 265 259 261 269 273 269 265 269 270 265 262 262 264 269 269 266
212 208 205 202 201 204 208 212 217 217 217 219 221 224 227 231 237 240 242 245 246 248 255 255 249 253 264 269 268 269 273 270 262 258 257 256 258 261 264 265 265 265
212 214 211 204 202 205 207 212 217 219 221 221 220 222 222 226 235 241 247 254 254 255 259 257 248 253 262 264 264 266 270 270 261 252 251 255 258 262 263 263 261 258
199 205 208 204 205 211 213 215 218 221 223 220 217 218 216 215 222 225 237 257 267 272 272 265 258 260 260 259 261 265 267 269 264 256 250 249 255 260 261 259 257 252
182 181 191 197 205 214 216 215 216 218 217 214 216 213 202 205 213 207 210 231 255 288 289 275 259 258 259 262 266 267 266 265 263 263 259 257 261 262 260 261 259 246
174 175 184 191 201 216 226 223 207 201 213 222 226 215 199 205 207 190 189 206 206 239 255 265 278 276 273 276 278 274 269 262 259 263 268 271 272 268 265 264 250 237
170 174 177 184 188 188 211 232 211 199 214 225 223 215 211 216 213 198 197 196 168 161 144 116 328 308 304 305 303 296 285 273 270 272 273 277 279 279 282 278 232 243
173 173 176 198 204 193 192 216 218 206 206 210 209 204 201 202 195 181 165 140 121 102 91 91 59 5 352 339 326 317 310 300 290 283 283 295 297 288 282 274 228 259
Height
855 856 857 858 859 860 860 861 861 862 863 863 864 865 865 866 867 868 869 869 870 871 871 871 872 872 873 873 873 873 874 873 873 873 873 873 873 872 872 872 871 871
854 855 857 857 858 859 859 860 861 861 862 863 863 864 865 866 866 867 868 869 869 870 870 871 871 871 872 872 873 873 873 873 873 873 873 873 873 872 871 871 871 870
853 854 855 856 857 858 858 859 860 861 861 862 862 863 864 864 865 866 867 868 868 869 869 870 870 871 871 871 872 872 872 873 872 872 872 872 872 872 871 870 870 869
851 852 853 855 855 856 857 858 859 859 860 861 861 862 863 863 864 865 866 867 867 868 868 869 869 870 870 871 871 871 871 872 872 872 872 871 871 871 870 870 869 868
849 851 852 853 854 855 856 857 858 858 859 859 860 861 861 862 863 864 865 865 866 867 867 868 868 869 869 869 870 870 870 870 870 870 871 870 870 870 869 869 868 868
847 848 850 851 852 854 854 855 856 857 857 858 859 859 860 861 862 862 863 864 864 865 865 866 867 867 868 868 868 869 869 869 869 869 869 869 869 869 868 868 867 867
845 846 848 850 850 852 853 853 855 855 856 857 857 858 859 859 860 861 862 862 863 863 864 864 865 865 866 866 867 867 867 868 867 868 868 868 868 867 867 867 867 866
843 845 846 848 848 850 850 851 853 853 854 855 856 857 857 858 859 859 860 861 861 862 862 863 863 864 865 865 865 866 866 866 866 866 866 866 866 866 866 866 865 865
842 843 844 846 847 848 848 849 850 851 852 853 854 855 855 856 857 857 858 859 860 860 861 862 862 862 863 863 864 864 864 864 864 864 864 864 864 864 864 864 863 863
840 841 842 843 844 845 846 847 848 849 850 851 852 853 853 854 855 856 857 858 858 859 859 860 861 861 861 862 862 862 862 863 863 862 862 862 862 862 862 861 861 861
838 839 840 841 842 843 844 845 846 847 848 849 850 851 851 852 853 854 855 856 856 857 858 858 859 859 860 860 860 860 861 861 861 861 861 860 860 860 860 860 859 859
837 837 838 839 840 841 842 843 844 845 846 847 848 849 850 851 852 853 853 854 855 855 856 856 857 858 858 858 859 859 859 859 859 859 859 858 858 858 858 858 857 857
834 836 836 837 838 839 840 841 842 843 844 845 846 848 849 849 850 851 852 852 853 854 854 855 855 856 856 856 857 857 857 857 857 857 857 856 856 856 856 855 855 855
832 833 834 836 837 838 839 840 840 842 842 844 845 846 847 847 848 849 849 850 851 852 852 853 853 854 854 854 855 855 855 855 855 855 855 854 854 854 854 854 853 853
830 832 833 834 836 836 838 839 839 840 841 843 844 844 845 846 846 847 848 848 849 850 850 851 851 851 852 852 853 853 853 853 853 853 853 853 852 852 852 852 852 852
828 830 831 833 834 835 836 837 838 839 840 841 842 843 844 845 845 846 846 847 847 848 848 849 849 849 849 850 851 852 852 852 851 851 851 851 851 851 851 851 850 850
827 828 830 831 832 834 835 836 837 838 839 840 841 842 843 844 844 845 845 846 846 846 846 846 846 846 848 849 851 851 851 850 850 850 850 850 850 850 850 850 850 849
825 827 828 829 831 832 833 834 836 836 837 839 839 840 841 842 843 843 844 844 844 844 844 844 844 845 846 848 849 850 850 850 849 849 848 849 850 849 849 849 848 848
824 826 827 828 829 830 832 832 834 835 836 837 838 839 840 840 841 841 842 842 843 843 843 843 843 843 844 846 847 847 848 848 848 848 847 847 847 847 847 847 847 846
824 825 826 827 828 829 830 831 832 833 834 835 836 837 838 839 839 840 840 841 841 841 842 842 842 841 842 844 845 845 845 845 846 847 845 845 845 845 845 845 845 844
822 824 825 826 827 828 829 830 831 832 833 834 834 835 836 837 837 838 839 839 840 840 840 840 840 840 841 842 842 843 843 843 844 844 843 842 842 842 843 842 842 843
820 822 824 825 826 827 828 829 830 831 832 833 833 834 835 835 836 836 837 838 839 839 840 840 839 839 839 840 840 841 841 841 842 842 841 840 840 840 840 839 839 840
818 820 822 824 825 826 827 827 828 830 831 832 832 833 833 834 834 835 835 836 837 838 839 840 838 837 838 838 838 839 839 839 840 840 840 839 838 838 838 836 836 837
817 819 821 823 824 826 827 827 827 828 830 831 832 832 832 833 834 834 835 835 835 835 837 839 838 837 837 837 837 838 837 838 838 838 837 837 836 836 836 834 833 835
816 818 820 822 824 825 826 827 827 827 828 830 831 831 832 833 833 834 835 835 836 835 835 837 837 836 837 837 837 837 837 837 837 836 836 836 835 835 835 833 832 833
816 817 819 821 823 822 822 825 827 827 827 828 829 830 831 832 833 834 835 835 836 835 835 835 836 835 836 836 836 836 836 836 837 835 834 834 834 834 835 834 832 832